Time,TemperatureF,DewpointF,PressureIn,WindDirection,WindDirectionDegrees,WindSpeedMPH,WindSpeedGustMPH,Humidity,HourlyPrecipIn,Conditions,Clouds,dailyrainin,SoftwareType,DateUTC
2014-02-27 00:09:00,42.2,37.1,29.74,ENE,67,1.0,2.0,82,0.00,,,0.00,Wunderground v.1.15,2014-02-27 08:09:00,
2014-02-27 00:14:00,42.2,37.1,29.74,ENE,65,1.0,2.0,82,0.00,,,0.00,Wunderground v.1.15,2014-02-27 08:14:00,
2014-02-27 00:24:00,42.0,36.9,29.74,East,94,1.0,3.0,82,0.00,,,0.00,Wunderground v.1.15,2014-02-27 08:24:00,
2014-02-27 00:34:00,41.9,37.1,29.74,ENE,76,1.0,2.0,83,0.00,,,0.00,Wunderground v.1.15,2014-02-27 08:34:00,
2014-02-27 01:19:00,41.9,37.1,29.72,NW,316,3.0,3.0,83,0.00,,,0.00,Wunderground v.1.15,2014-02-27 09:19:00,
2014-02-27 01:24:00,41.6,36.8,29.72,ENE,60,2.0,3.0,83,0.00,,,0.00,Wunderground v.1.15,2014-02-27 09:24:00,
2014-02-27 01:34:00,41.8,36.7,29.72,NE,46,3.0,3.0,82,0.00,,,0.00,Wunderground v.1.15,2014-02-27 09:34:00,
2014-02-27 01:44:00,41.7,36.9,29.72,ENE,76,2.0,3.0,83,0.00,,,0.00,Wunderground v.1.15,2014-02-27 09:44:00,
2014-02-27 01:54:00,41.7,36.3,29.72,ENE,65,3.0,3.0,81,0.00,,,0.00,Wunderground v.1.15,2014-02-27 09:54:00,
2014-02-27 02:04:00,41.7,36.6,29.72,NNW,346,3.0,3.0,82,0.00,,,0.00,Wunderground v.1.15,2014-02-27 10:04:00,
2014-02-27 02:14:00,41.7,36.9,29.71,NW,305,1.0,2.0,83,0.00,,,0.00,Wunderground v.1.15,2014-02-27 10:14:00,
2014-02-27 02:24:00,41.6,36.5,29.71,ESE,104,2.0,2.0,82,0.00,,,0.00,Wunderground v.1.15,2014-02-27 10:24:00,
2014-02-27 02:29:00,41.5,36.1,29.71,ESE,108,2.0,2.0,81,0.00,,,0.00,Wunderground v.1.15,2014-02-27 10:29:00,
2014-02-27 02:39:00,41.1,35.7,29.70,ESE,113,2.0,2.0,81,0.00,,,0.00,Wunderground v.1.15,2014-02-27 10:39:00,
2014-02-27 02:49:00,41.3,37.4,29.70,NE,56,2.0,6.0,86,0.00,,,0.00,Wunderground v.1.15,2014-02-27 10:49:00,
2014-02-27 02:54:00,41.4,37.2,29.70,NE,39,3.0,6.0,85,0.00,,,0.00,Wunderground v.1.15,2014-02-27 10:54:00,
2014-02-27 03:04:00,41.7,35.3,29.70,NE,50,4.0,4.0,78,0.00,,,0.00,Wunderground v.1.15,2014-02-27 11:04:00,
2014-02-27 03:14:00,41.7,35.3,29.70,ENE,73,4.0,4.0,78,0.00,,,0.00,Wunderground v.1.15,2014-02-27 11:14:00,
2014-02-27 03:24:00,41.2,34.9,29.69,East,82,3.0,5.0,78,0.00,,,0.00,Wunderground v.1.15,2014-02-27 11:24:00,
2014-02-27 03:34:00,41.4,36.3,29.70,NE,43,3.0,3.0,82,0.00,,,0.00,Wunderground v.1.15,2014-02-27 11:34:00,
2014-02-27 03:44:00,41.3,37.1,29.70,ENE,65,2.0,3.0,85,0.00,,,0.00,Wunderground v.1.15,2014-02-27 11:44:00,
2014-02-27 03:54:00,41.2,36.7,29.69,NE,41,2.0,2.0,84,0.00,,,0.00,Wunderground v.1.15,2014-02-27 11:54:00,
2014-02-27 03:59:00,41.0,36.2,29.69,ESE,105,2.0,2.0,83,0.00,,,0.00,Wunderground v.1.15,2014-02-27 11:59:00,
2014-02-27 04:09:00,40.9,36.1,29.69,NE,49,2.0,3.0,83,0.00,,,0.00,Wunderground v.1.15,2014-02-27 12:09:00,
2014-02-27 04:14:00,41.2,36.7,29.69,NNW,345,3.0,3.0,84,0.00,,,0.00,Wunderground v.1.15,2014-02-27 12:14:00,
2014-02-27 04:24:00,41.1,36.6,29.69,NE,48,1.0,3.0,84,0.00,,,0.00,Wunderground v.1.15,2014-02-27 12:24:00,
2014-02-27 04:34:00,41.5,36.4,29.69,NNE,30,3.0,4.0,82,0.00,,,0.00,Wunderground v.1.15,2014-02-27 12:34:00,
2014-02-27 04:39:00,41.6,36.5,29.69,NE,43,4.0,4.0,82,0.00,,,0.00,Wunderground v.1.15,2014-02-27 12:39:00,
2014-02-27 04:49:00,41.5,36.7,29.69,WNW,302,3.0,4.0,83,0.00,,,0.00,Wunderground v.1.15,2014-02-27 12:49:00,
2014-02-27 04:59:00,41.6,37.1,29.69,NNE,26,3.0,3.0,84,0.00,,,0.00,Wunderground v.1.15,2014-02-27 12:59:00,
2014-02-27 05:09:00,41.7,37.8,29.68,WNW,287,3.0,3.0,86,0.00,,,0.00,Wunderground v.1.15,2014-02-27 13:09:00,
2014-02-27 05:19:00,41.9,38.9,29.68,ENE,65,3.0,3.0,89,0.00,,,0.00,Wunderground v.1.15,2014-02-27 13:19:00,
2014-02-27 05:24:00,41.8,38.8,29.68,NE,47,4.0,4.0,89,0.00,,,0.00,Wunderground v.1.15,2014-02-27 13:24:00,
2014-02-27 05:34:00,41.8,38.8,29.68,NNW,345,4.0,6.0,89,0.00,,,0.00,Wunderground v.1.15,2014-02-27 13:34:00,
2014-02-27 05:44:00,41.9,38.3,29.68,NE,56,5.0,5.0,87,0.00,,,0.00,Wunderground v.1.15,2014-02-27 13:44:00,
2014-02-27 05:49:00,41.7,38.4,29.68,NW,322,4.0,4.0,88,0.00,,,0.00,Wunderground v.1.15,2014-02-27 13:49:00,
2014-02-27 05:59:00,41.4,38.7,29.67,NNE,18,4.0,6.0,90,0.00,,,0.00,Wunderground v.1.15,2014-02-27 13:59:00,
2014-02-27 06:09:00,41.2,38.5,29.67,NE,56,4.0,6.0,90,0.00,,,0.00,Wunderground v.1.15,2014-02-27 14:09:00,
2014-02-27 06:19:00,41.2,38.5,29.67,NNW,345,6.0,8.0,90,0.00,,,0.00,Wunderground v.1.15,2014-02-27 14:19:00,
2014-02-27 06:24:00,41.2,38.8,29.67,North,356,5.0,8.0,91,0.00,,,0.00,Wunderground v.1.15,2014-02-27 14:24:00,
2014-02-27 06:34:00,41.0,38.6,29.67,NNE,25,5.0,5.0,91,0.00,,,0.00,Wunderground v.1.15,2014-02-27 14:34:00,
2014-02-27 06:44:00,40.9,38.8,29.67,North,8,5.0,8.0,92,0.00,,,0.00,Wunderground v.1.15,2014-02-27 14:44:00,
2014-02-27 06:54:00,40.9,38.8,29.67,NE,44,5.0,9.0,92,0.00,,,0.00,Wunderground v.1.15,2014-02-27 14:54:00,
2014-02-27 06:59:00,40.9,38.8,29.67,ENE,65,5.0,5.0,92,0.00,,,0.00,Wunderground v.1.15,2014-02-27 14:59:00,
2014-02-27 07:04:00,40.9,38.8,29.68,NE,56,5.0,6.0,92,0.00,,,0.00,Wunderground v.1.15,2014-02-27 15:04:00,
2014-02-27 07:14:00,40.9,38.5,29.67,NW,312,5.0,5.0,91,0.00,,,0.00,Wunderground v.1.15,2014-02-27 15:14:00,
2014-02-27 07:24:00,40.8,38.4,29.67,NE,37,4.0,4.0,91,0.00,,,0.00,Wunderground v.1.15,2014-02-27 15:24:00,
2014-02-27 07:34:00,40.9,38.5,29.67,ENE,63,5.0,11.0,91,0.00,,,0.00,Wunderground v.1.15,2014-02-27 15:34:00,
2014-02-27 07:44:00,41.2,38.8,29.68,NNE,19,5.0,5.0,91,0.00,,,0.00,Wunderground v.1.15,2014-02-27 15:44:00,
2014-02-27 07:54:00,41.3,38.9,29.68,North,5,4.0,9.0,91,0.00,,,0.00,Wunderground v.1.15,2014-02-27 15:54:00,
2014-02-27 08:04:00,41.4,39.0,29.68,NNE,33,5.0,8.0,91,0.00,,,0.00,Wunderground v.1.15,2014-02-27 16:04:00,
2014-02-27 08:14:00,41.6,39.2,29.68,WNW,293,5.0,6.0,91,0.00,,,0.00,Wunderground v.1.15,2014-02-27 16:14:00,
2014-02-27 08:24:00,41.6,39.2,29.68,North,349,5.0,6.0,91,0.00,,,0.00,Wunderground v.1.15,2014-02-27 16:24:00,
2014-02-27 08:34:00,41.6,39.2,29.68,NNE,15,6.0,8.0,91,0.00,,,0.00,Wunderground v.1.15,2014-02-27 16:34:00,
2014-02-27 08:44:00,41.7,39.3,29.68,NW,304,6.0,6.0,91,0.00,,,0.00,Wunderground v.1.15,2014-02-27 16:44:00,
2014-02-27 08:54:00,41.9,39.5,29.69,NNW,338,5.0,6.0,91,0.00,,,0.00,Wunderground v.1.15,2014-02-27 16:54:00,
2014-02-27 08:59:00,41.9,39.5,29.69,NW,322,5.0,5.0,91,0.00,,,0.00,Wunderground v.1.15,2014-02-27 16:59:00,
2014-02-27 09:09:00,41.9,39.5,29.69,North,349,5.0,5.0,91,0.00,,,0.00,Wunderground v.1.15,2014-02-27 17:09:00,
2014-02-27 09:19:00,42.2,39.5,29.69,NW,305,3.0,4.0,90,0.00,,,0.00,Wunderground v.1.15,2014-02-27 17:19:00,
2014-02-27 09:24:00,42.3,39.6,29.69,NNE,13,4.0,4.0,90,0.00,,,0.00,Wunderground v.1.15,2014-02-27 17:24:00,
2014-02-27 09:29:00,42.4,39.7,29.69,NNW,327,4.0,5.0,90,0.00,,,0.00,Wunderground v.1.15,2014-02-27 17:29:00,
2014-02-27 09:39:00,42.5,39.8,29.69,NNW,334,4.0,4.0,90,0.00,,,0.00,Wunderground v.1.15,2014-02-27 17:39:00,
2014-02-27 09:49:00,42.5,39.8,29.70,NW,323,4.0,4.0,90,0.00,,,0.00,Wunderground v.1.15,2014-02-27 17:49:00,
2014-02-27 09:54:00,42.6,39.6,29.70,NW,314,4.0,4.0,89,0.00,,,0.00,Wunderground v.1.15,2014-02-27 17:54:00,
2014-02-27 10:04:00,42.7,40.0,29.70,NNW,338,3.0,5.0,90,0.00,,,0.00,Wunderground v.1.15,2014-02-27 18:04:00,
2014-02-27 10:14:00,42.9,39.9,29.70,NNW,340,3.0,4.0,89,0.00,,,0.00,Wunderground v.1.15,2014-02-27 18:14:00,
2014-02-27 10:24:00,43.2,40.2,29.70,NNW,333,2.0,3.0,89,0.00,,,0.00,Wunderground v.1.15,2014-02-27 18:24:00,
2014-02-27 10:34:00,43.2,40.2,29.70,North,349,4.0,5.0,89,0.00,,,0.00,Wunderground v.1.15,2014-02-27 18:34:00,
2014-02-27 10:44:00,43.3,40.3,29.70,NW,310,4.0,4.0,89,0.00,,,0.00,Wunderground v.1.15,2014-02-27 18:44:00,
2014-02-27 10:54:00,43.4,40.1,29.71,North,358,3.0,4.0,88,0.00,,,0.00,Wunderground v.1.15,2014-02-27 18:54:00,
2014-02-27 10:59:00,43.3,40.0,29.71,NNW,338,3.0,3.0,88,0.00,,,0.00,Wunderground v.1.15,2014-02-27 18:59:00,
2014-02-27 11:09:00,43.4,40.1,29.71,NNW,342,2.0,2.0,88,0.00,,,0.00,Wunderground v.1.15,2014-02-27 19:09:00,
2014-02-27 11:14:00,43.5,40.2,29.71,NNE,15,2.0,3.0,88,0.00,,,0.00,Wunderground v.1.15,2014-02-27 19:14:00,
2014-02-27 11:24:00,43.4,40.1,29.71,NW,311,3.0,3.0,88,0.00,,,0.00,Wunderground v.1.15,2014-02-27 19:24:00,
2014-02-27 11:34:00,43.6,40.3,29.72,NW,319,2.0,3.0,88,0.00,,,0.00,Wunderground v.1.15,2014-02-27 19:34:00,
2014-02-27 11:39:00,43.7,40.4,29.72,North,356,2.0,3.0,88,0.00,,,0.00,Wunderground v.1.15,2014-02-27 19:39:00,
2014-02-27 11:49:00,44.4,40.8,29.71,East,94,1.0,3.0,87,0.00,,,0.00,Wunderground v.1.15,2014-02-27 19:49:00,
2014-02-27 11:59:00,45.3,41.1,29.72,ESE,122,1.0,1.0,85,0.00,,,0.00,Wunderground v.1.15,2014-02-27 19:59:00,
2014-02-27 12:09:00,46.0,41.4,29.72,East,100,1.0,1.0,84,0.00,,,0.00,Wunderground v.1.15,2014-02-27 20:09:00,
2014-02-27 12:19:00,46.9,41.4,29.72,NE,53,1.0,1.0,81,0.00,,,0.00,Wunderground v.1.15,2014-02-27 20:19:00,
2014-02-27 12:29:00,45.5,40.6,29.72,NW,321,3.0,3.0,83,0.00,,,0.00,Wunderground v.1.15,2014-02-27 20:29:00,
2014-02-27 12:39:00,44.9,40.7,29.72,NNW,334,3.0,3.0,85,0.00,,,0.00,Wunderground v.1.15,2014-02-27 20:39:00,
2014-02-27 12:44:00,45.0,41.1,29.72,NE,40,2.0,3.0,86,0.00,,,0.00,Wunderground v.1.15,2014-02-27 20:44:00,
2014-02-27 12:54:00,45.1,40.9,29.72,NE,42,2.0,3.0,85,0.00,,,0.00,Wunderground v.1.15,2014-02-27 20:54:00,
2014-02-27 12:59:00,45.0,40.8,29.72,WNW,303,2.0,2.0,85,0.00,,,0.00,Wunderground v.1.15,2014-02-27 20:59:00,
2014-02-27 13:09:00,45.5,41.6,29.72,NNE,30,2.0,2.0,86,0.00,,,0.00,Wunderground v.1.15,2014-02-27 21:09:00,
2014-02-27 13:19:00,45.9,41.3,29.72,NNW,334,2.0,2.0,84,0.00,,,0.00,Wunderground v.1.15,2014-02-27 21:19:00,
2014-02-27 13:29:00,45.6,40.7,29.72,NNW,333,2.0,3.0,83,0.00,,,0.00,Wunderground v.1.15,2014-02-27 21:29:00,
2014-02-27 13:39:00,46.0,41.1,29.72,NW,325,2.0,2.0,83,0.00,,,0.00,Wunderground v.1.15,2014-02-27 21:39:00,
2014-02-27 13:49:00,46.8,41.6,29.72,NW,311,2.0,2.0,82,0.00,,,0.00,Wunderground v.1.15,2014-02-27 21:49:00,
2014-02-27 13:54:00,46.5,41.0,29.71,NNW,344,3.0,4.0,81,0.00,,,0.00,Wunderground v.1.15,2014-02-27 21:54:00,
2014-02-27 14:04:00,46.0,41.1,29.72,NW,324,3.0,3.0,83,0.00,,,0.00,Wunderground v.1.15,2014-02-27 22:04:00,
2014-02-27 14:14:00,46.3,41.4,29.71,NW,319,2.0,2.0,83,0.00,,,0.00,Wunderground v.1.15,2014-02-27 22:14:00,
2014-02-27 14:24:00,46.4,41.2,29.71,NW,307,3.0,3.0,82,0.00,,,0.00,Wunderground v.1.15,2014-02-27 22:24:00,
2014-02-27 14:34:00,45.8,41.2,29.71,WNW,297,3.0,3.0,84,0.00,,,0.00,Wunderground v.1.15,2014-02-27 22:34:00,
2014-02-27 14:39:00,45.4,41.2,29.71,NNW,334,2.0,2.0,85,0.00,,,0.00,Wunderground v.1.15,2014-02-27 22:39:00,
2014-02-27 14:49:00,45.1,41.2,29.72,NNW,328,2.0,2.0,86,0.00,,,0.00,Wunderground v.1.15,2014-02-27 22:49:00,
2014-02-27 14:54:00,44.9,41.0,29.72,NNW,330,2.0,2.0,86,0.00,,,0.00,Wunderground v.1.15,2014-02-27 22:54:00,
2014-02-27 15:04:00,45.0,41.4,29.72,WNW,293,1.0,2.0,87,0.00,,,0.00,Wunderground v.1.15,2014-02-27 23:04:00,
2014-02-27 15:14:00,45.2,41.3,29.72,NNW,347,1.0,2.0,86,0.00,,,0.00,Wunderground v.1.15,2014-02-27 23:14:00,
2014-02-27 15:19:00,45.4,41.2,29.72,NNW,347,1.0,1.0,85,0.00,,,0.00,Wunderground v.1.15,2014-02-27 23:19:00,
2014-02-27 15:29:00,45.9,41.3,29.72,NNW,341,0.0,1.0,84,0.00,,,0.00,Wunderground v.1.15,2014-02-27 23:29:00,
2014-02-27 15:39:00,46.0,41.1,29.72,NNW,340,1.0,1.0,83,0.00,,,0.00,Wunderground v.1.15,2014-02-27 23:39:00,
2014-02-27 15:49:00,45.7,41.1,29.72,NNW,340,1.0,1.0,84,0.00,,,0.00,Wunderground v.1.15,2014-02-27 23:49:00,
2014-02-27 15:59:00,45.5,41.3,29.72,NW,314,0.0,0.0,85,0.00,,,0.00,Wunderground v.1.15,2014-02-27 23:59:00,
2014-02-27 16:09:00,45.5,41.6,29.72,NNE,23,0.0,0.0,86,0.00,,,0.00,Wunderground v.1.15,2014-02-28 00:09:00,
2014-02-27 16:19:00,45.5,41.6,29.72,NW,316,1.0,1.0,86,0.00,,,0.00,Wunderground v.1.15,2014-02-28 00:19:00,
2014-02-27 16:24:00,45.3,41.7,29.72,NW,319,1.0,2.0,87,0.00,,,0.00,Wunderground v.1.15,2014-02-28 00:24:00,
2014-02-27 16:34:00,44.8,41.5,29.72,WNW,303,1.0,1.0,88,0.00,,,0.00,Wunderground v.1.15,2014-02-28 00:34:00,
2014-02-27 16:44:00,44.7,41.4,29.72,NW,316,1.0,1.0,88,0.00,,,0.00,Wunderground v.1.15,2014-02-28 00:44:00,
2014-02-27 16:54:00,44.9,41.6,29.72,NNW,338,0.0,1.0,88,0.00,,,0.00,Wunderground v.1.15,2014-02-28 00:54:00,
2014-02-27 17:04:00,45.2,41.9,29.72,NE,40,0.0,1.0,88,0.00,,,0.00,Wunderground v.1.15,2014-02-28 01:04:00,
2014-02-27 17:14:00,45.5,41.9,29.72,NE,49,0.0,0.0,87,0.00,,,0.00,Wunderground v.1.15,2014-02-28 01:14:00,
2014-02-27 17:24:00,45.5,41.9,29.72,East,89,0.0,1.0,87,0.00,,,0.00,Wunderground v.1.15,2014-02-28 01:24:00,
2014-02-27 17:34:00,45.0,41.4,29.72,East,95,1.0,1.0,87,0.00,,,0.00,Wunderground v.1.15,2014-02-28 01:34:00,
2014-02-27 17:44:00,44.9,41.3,29.72,East,95,0.0,1.0,87,0.00,,,0.00,Wunderground v.1.15,2014-02-28 01:44:00,
2014-02-27 17:54:00,44.8,41.2,29.72,East,95,0.0,1.0,87,0.00,,,0.00,Wunderground v.1.15,2014-02-28 01:54:00,
2014-02-27 18:04:00,44.7,41.1,29.72,East,95,0.0,0.0,87,0.00,,,0.00,Wunderground v.1.15,2014-02-28 02:04:00,
2014-02-27 18:09:00,44.7,41.1,29.73,ESE,106,0.0,0.0,87,0.00,,,0.00,Wunderground v.1.15,2014-02-28 02:09:00,
2014-02-27 18:19:00,44.5,41.2,29.73,ESE,110,0.0,0.0,88,0.00,,,0.00,Wunderground v.1.15,2014-02-28 02:19:00,
2014-02-27 18:24:00,44.4,41.1,29.73,ESE,110,0.0,0.0,88,0.00,,,0.00,Wunderground v.1.15,2014-02-28 02:24:00,
2014-02-27 18:34:00,44.4,41.1,29.73,ESE,110,0.0,0.0,88,0.00,,,0.00,Wunderground v.1.15,2014-02-28 02:34:00,
2014-02-27 18:54:00,44.1,40.8,29.73,ESE,110,0.0,0.0,88,0.00,,,0.00,Wunderground v.1.15,2014-02-28 02:54:00,
2014-02-27 18:59:00,44.0,40.7,29.74,ESE,110,0.0,0.0,88,0.00,,,0.00,Wunderground v.1.15,2014-02-28 02:59:00,
2014-02-27 19:09:00,43.9,40.6,29.74,ESE,110,0.0,0.0,88,0.00,,,0.00,Wunderground v.1.15,2014-02-28 03:09:00,
2014-02-27 19:14:00,43.7,40.4,29.74,ESE,110,0.0,0.0,88,0.00,,,0.00,Wunderground v.1.15,2014-02-28 03:14:00,
2014-02-27 19:24:00,43.6,40.3,29.74,ESE,110,0.0,0.0,88,0.00,,,0.00,Wunderground v.1.15,2014-02-28 03:24:00,
2014-02-27 19:34:00,43.5,40.2,29.74,ESE,110,0.0,0.0,88,0.00,,,0.00,Wunderground v.1.15,2014-02-28 03:34:00,
2014-02-27 19:44:00,43.1,39.8,29.74,ESE,110,0.0,0.0,88,0.00,,,0.00,Wunderground v.1.15,2014-02-28 03:44:00,
2014-02-27 19:54:00,42.7,39.4,29.74,ESE,110,0.0,0.0,88,0.00,,,0.00,Wunderground v.1.15,2014-02-28 03:54:00,
2014-02-27 20:04:00,41.9,38.9,29.74,ESE,110,0.0,0.0,89,0.00,,,0.00,Wunderground v.1.15,2014-02-28 04:04:00,
2014-02-27 20:14:00,41.9,38.9,29.74,ESE,110,0.0,0.0,89,0.00,,,0.00,Wunderground v.1.15,2014-02-28 04:14:00,
2014-02-27 20:24:00,42.2,39.2,29.74,ESE,110,0.0,0.0,89,0.00,,,0.00,Wunderground v.1.15,2014-02-28 04:24:00,
2014-02-27 20:34:00,42.5,39.5,29.74,ESE,110,0.0,0.0,89,0.00,,,0.00,Wunderground v.1.15,2014-02-28 04:34:00,
2014-02-27 20:44:00,43.1,39.8,29.75,East,79,0.0,0.0,88,0.00,,,0.00,Wunderground v.1.15,2014-02-28 04:44:00,
2014-02-27 20:49:00,43.4,40.1,29.75,East,85,0.0,0.0,88,0.00,,,0.00,Wunderground v.1.15,2014-02-28 04:49:00,
2014-02-27 20:59:00,43.2,39.6,29.75,NW,311,0.0,0.0,87,0.00,,,0.00,Wunderground v.1.15,2014-02-28 04:59:00,
2014-02-27 21:04:00,42.9,39.6,29.75,NW,311,0.0,0.0,88,0.00,,,0.00,Wunderground v.1.15,2014-02-28 05:04:00,
2014-02-27 21:14:00,42.7,39.7,29.76,NW,310,0.0,0.0,89,0.00,,,0.00,Wunderground v.1.15,2014-02-28 05:14:00,
2014-02-27 21:24:00,42.7,39.7,29.76,WNW,297,0.0,0.0,89,0.00,,,0.00,Wunderground v.1.15,2014-02-28 05:24:00,
2014-02-27 21:29:00,42.7,40.0,29.76,WNW,297,0.0,0.0,90,0.00,,,0.00,Wunderground v.1.15,2014-02-28 05:29:00,
2014-02-27 21:34:00,42.7,40.0,29.76,NW,319,0.0,0.0,90,0.00,,,0.00,Wunderground v.1.15,2014-02-28 05:34:00,
2014-02-27 21:44:00,42.6,39.9,29.76,NW,325,0.0,0.0,90,0.00,,,0.00,Wunderground v.1.15,2014-02-28 05:44:00,
2014-02-27 21:49:00,42.5,39.8,29.76,NW,325,0.0,0.0,90,0.00,,,0.00,Wunderground v.1.15,2014-02-28 05:49:00,
2014-02-27 21:59:00,42.5,39.8,29.77,NW,325,0.0,0.0,90,0.00,,,0.00,Wunderground v.1.15,2014-02-28 05:59:00,
2014-02-27 22:09:00,42.5,39.8,29.77,NW,324,0.0,0.0,90,0.00,,,0.00,Wunderground v.1.15,2014-02-28 06:09:00,
2014-02-27 22:14:00,42.5,39.8,29.77,North,353,0.0,0.0,90,0.00,,,0.00,Wunderground v.1.15,2014-02-28 06:14:00,
2014-02-27 22:24:00,42.5,39.8,29.77,NE,51,1.0,1.0,90,0.00,,,0.00,Wunderground v.1.15,2014-02-28 06:24:00,
2014-02-27 22:34:00,42.4,40.0,29.77,NE,51,0.0,0.0,91,0.00,,,0.00,Wunderground v.1.15,2014-02-28 06:34:00,
2014-02-27 22:39:00,42.4,40.0,29.77,NE,52,0.0,0.0,91,0.00,,,0.00,Wunderground v.1.15,2014-02-28 06:39:00,
2014-02-27 22:49:00,42.2,39.5,29.77,NE,51,0.0,0.0,90,0.00,,,0.00,Wunderground v.1.15,2014-02-28 06:49:00,
2014-02-27 22:54:00,42.0,39.6,29.77,NE,36,0.0,0.0,91,0.00,,,0.00,Wunderground v.1.15,2014-02-28 06:54:00,
2014-02-27 23:04:00,41.8,39.4,29.78,NE,36,0.0,0.0,91,0.00,,,0.00,Wunderground v.1.15,2014-02-28 07:04:00,
2014-02-27 23:14:00,42.4,40.0,29.77,NE,46,0.0,0.0,91,0.00,,,0.00,Wunderground v.1.15,2014-02-28 07:14:00,
2014-02-27 23:24:00,42.1,39.4,29.77,ESE,108,1.0,2.0,90,0.00,,,0.00,Wunderground v.1.15,2014-02-28 07:24:00,
2014-02-27 23:29:00,42.5,39.8,29.77,East,84,1.0,1.0,90,0.00,,,0.00,Wunderground v.1.15,2014-02-28 07:29:00,
2014-02-27 23:39:00,42.7,39.7,29.77,ESE,106,1.0,1.0,89,0.00,,,0.00,Wunderground v.1.15,2014-02-28 07:39:00,
2014-02-27 23:44:00,43.2,40.2,29.77,ENE,76,1.0,3.0,89,0.00,,,0.00,Wunderground v.1.15,2014-02-28 07:44:00,
2014-02-27 23:54:00,43.4,40.1,29.77,East,95,1.0,2.0,88,0.00,,,0.00,Wunderground v.1.15,2014-02-28 07:54:00,